Погода в Пяндже

Погода в Пяндже : погода сейчас, прогноз погоды и архив. Всё, что Вы хотите узнать о погоде в Пяндже!

Поиск расширенной информации на нашем сайте:

Другие новости

Новости СМИ2

Главная страница сайта

Новости сайта

03.07.2017

Напоминаем, что на нашем специализированном сайте Метеоцентр.Азия вы можете получить высокодетализированные автоматические прогнозы погоды по пунктам России, СНГ и мира в авиационном формате (включающие направление и скорость ветра, видимость, явления погоды, количество и форму облачности, нижнюю и верхнюю границу облачности).


Погода в Пяндже - сегодня

Время (UTC), дата Ветер
(°,м/с) 
Видим.   Явления Облачность Т
(°С)
Тd
(°С)
f(%) Тe
(°С)
Pmin
(гПа)
dP
(гПа)
Po
(мм)
O2
(г/м3)
Тmin Tmax R s Состояние
почвы
00 15.02.18 090 (В) н/о  ливневой дождь  10/10 600 м кучево-дожд. 
[Cb cap]
+4.1 +2.1 87 +5  1019.4  0.8  731  290           
03 15.02.18 340 (С) 10 км  в посл. час ливневой дождь  10/10 600 м кучево-дожд. 
[Cb cap]
+3.8 +2 88 +3  1023.4  3.8  734  291  +3.4    19     
06 15.02.18 250 (З) 10 км    10/10 600 м кучево-дожд. 
[Cb cap]
+5.9 +3.5 85 +6  1025.4  2.2  736  289  +3.4    19     
09 15.02.18 260 (З) 10 км    10/10 600 м кучево-дожд. 
[Cb cap]
+7 +4.5 84 +7  1031  5.7  740  289           
12 15.02.18 240 (ЮЗ) 20000 м    6/6 600 м кучево-дожд. 
[Cb cap]
+7 +5 87 +7  1034.4  3.1  743  291           
15 15.02.18 330 (СЗ) н/о    4/4 1000 м кучево-дожд. 
[Cb cap]
+5.8 +3.7 86 +7  1035  0.4  742  291    +7.4       
18 15.02.18 090 (В) н/о    ясно 
+4.1 +2.1 87 +5  1034.8  -0.5  742  293    +7.4       
21 15.02.18 140 (ЮВ) н/о    ясно 
+2.4 +0.5 87 +3  1035.5  0.4  742  296           
03 16.02.18 010 (С) 10 км    3/0 верхняя 
[Ci fib]
+1 -1.3 85 +2  1034.3  -0.4  741  297  +0.1         
06 16.02.18 290 (З) 2000 м  дымка  ?/?  
+5.5 +4.8 95 +6  1034.1  0.1  742  292  +0.1         
09 16.02.18 230 (ЮЗ) 10 км    3/0 верхняя 
[Ci fib]
+8.4 +5.8 84 +9  1032.7  -1  741  288           
12 16.02.18 260 (З) 20000 м    5/0 средняя 
[Ac trans]
+11 +4.8 66 +12  1031.5  -0.7  741  286           
15 16.02.18 140 (ЮВ) н/о    8/8 600 м кучево-дожд. 
[Cb cap]
+7.1 +3 75 +8  1031.5  -0.6  740  289    +11.6       
18 16.02.18 060 (СВ) н/о    3/3 1000 м кучево-дожд. 
[Cb cap]
+5.1 +1.6 78 +6  1031.3  -0.5  740  292    +11.6       
21 16.02.18 130 (ЮВ) н/о    4/3 1000 м кучево-дожд., верхняя 
[Cb cap|Ci fib]
+3.2 +0.3 81 +4  1030.9  -0.7  739  293           
00 17.02.18 030 (СВ) н/о    8/6 1000 м верхняя 
[Sc|Ci fib]
+2.5 +0.1 84 +3  1030.7  -0.3  739  295           
03 17.02.18 080 (В) 4000 м  дымка  9/3 1000 м кучево-дожд., верхняя 
[Cb cap|Ci fib]
+3.1 +0.2 81 +4  1029.9  -0.7  739  294  +1.9         
06 17.02.18 350 (С) 4000 м  дымка  9/0 средняя 
[Ac trans]
+9.7 +6.1 78 +11  1029.2  0.5  739  286  +1.9         
09 17.02.18 120 (ЮВ) 10 км    3/3 600 м кучево-дожд. 
[Cb calv]
+11.8 +5.8 67 +13  1028.3  -0.6  738  283           
12 17.02.18 340 (С) 20000 м    3/3 600 м кучево-дожд., верхняя 
[Cb calv|Ci fib]
+13.6 +5 56 +15  1025.3  -2.6  737  282           
15 17.02.18 070 (В) н/о    ясно 
+9.4 +3.6 67 +10  1025.6  -0.4  736  285    +14.6       
18 17.02.18 300 (СЗ) н/о    1/0 
+6.5 +1.8 72 +7  1026.3  0.2  736  289    +14.6       
21 17.02.18 600 () н/о    ясно 
+4.1 +0.7 78 +5  1026.4  -0.2  736  291           
00 18.02.18 100 (В) н/о    8/0 верхняя 
[Ci fib]
+3.5 +0.6 81 +4  1025  -0.2  736  293           
03 18.02.18 040 (СВ) 10 км    8/0 верхняя 
[Ci fib]
+4.9 +1.2 77 +6  1026.4  0.3  736  290  +2.1         
Время (UTC), дата Ветер
(°,м/с) 
Видим.   Явления Облачность Т
(°С)
Тd
(°С)
f(%) Тe
(°С)
Pmin
(гПа)
dP
(гПа)
Po
(мм)
O2
(г/м3)
Тmin Tmax R s Состояние
почвы

Для получения пояснительной информации подведите курсор к названию столбца.

ПОГОДА в Пяндже - архив

Всё, что Вы хотите узнать о погоде в Пяндже - удобно и подробно!

Выберите нужную дату (начиная с 1 января 2015* года) и нажмите кнопку "Найти".
Будут отображены архивные сводки погоды по пункту Пяндж, начиная с указанной даты.


Отображать данные в формате CSV (для использования в таблицах Excel)


Внимание! Наш архив погоды предназначен исключительно для личного некоммерческого использования в познавательных целях. Если Вам необходимы официальные справки о состоянии погоды (для производственных, юридических, коммерческих и т.п. целей), обращайтесь в органы Росгидромета.

*Примечание: данная дата относится к архиву по метеостанциям СССР (Россия, СНГ, Балтия).
Архив по метеостанциям Зарубежной Европы и Азии (кроме Китая) хранится 10 дней, по другим регионам земного шара (Китай, Африка, Америка, Австралия, Океания) - 1 день.

Пяндж - район местоположения метеостанции


Название, широта, долгота, высота метеостанции:
Пяндж 37.2°ш. 69.1°д. 363 м над ур. моря [Таджикистан]

Дополнительная информация

В oтличие oт бoльшинства пoгoдных сайтoв мы публикуем пoдрoбную метеoинфoрмацию в детальнoм прoфессиoнальнoм фoрмате.

Характеристики температуры и влажнoсти вoздуха измеряются на высoте 2 м в тени вдали oт зданий и деревьев.
Скoрoсть ветра измеряется на высoте 10 м (на урoвне рoста челoвека скoрoсть ветра ниже в 1.5-2 раза). Если метеoстанция нахoдится в гoрoде или в лесу, тo скoрoсть ветра занижена на 2-4 м/с пo сравнению с oткрытым местoм. Скoрoсть ветра над акватoриями крупных рек и oзёр, а также на вершинах хoлмoв на 2-5 м/с выше, чем в oбычных услoвиях.
Атмoсфернoе давление в разных тoчках местнoсти мoжет значительнo oтличаться oт давления на метеoстанции, в зависимoсти oт услoвий рельефа (при пoдъёме на 10 м давление пoнижается примернo на 1 мм рт.ст.).